Regional Weather Roundup
Issued by NWS

Home | Current Version | Previous Version | Text Only | Print | Product List | Glossary On
Versions: 1 2 3 4 5 6 7 8 9 10 11 12 13 14 15 16 17 18 19 20 21 22 23 24 25 26 27 28 29 30 31 32 33 34 35 36 37 38 39 40 41 42 43 44 45 46 47 48 49 50
000
ASUS46 KPQR 221910
RWROR

OREGON REGIONAL WEATHER ROUNDUP
NATIONAL WEATHER SERVICE PORTLAND OR
1100 AM PST MON DEC 22 2014

NOTE: "FAIR" INDICATES FEW OR NO CLOUDS BELOW 12,000 FEET WITH
NO SIGNIFICANT WEATHER AND/OR OBSTRUCTIONS TO VISIBILITY.

ORZ001>013-222000-
NORTHWEST OREGON


CITY           SKY/WX    TMP DP  RH WIND       PRES   REMARKS
ASTORIA        PTSUNNY   49  47  93 SE5       30.37R
NEWPORT        SUNNY     54  52  94 CALM      30.39F
PORTLAND       PTSUNNY   50  49  96 E6        30.39S FOG
VANCOUVER WA   PTSUNNY   49  47  93 S5        30.39S
SCAPPOOSE      PTSUNNY   49  47  93 CALM      30.38F
HILLSBORO      CLOUDY    51  48  89 CALM      30.38F
AURORA         CLOUDY    51  48  89 SE7       30.39F
MCMINNVILLE    CLOUDY    52  48  86 CALM      30.39F
SALEM          CLOUDY    53  48  83 S3        30.37F
CORVALLIS      SUNNY     55  48  76 CALM      30.39F
EUGENE         CLOUDY    55  51  86 CALM      30.37F
$$

ORZ021-028-222000-
SOUTHWEST OREGON


CITY           SKY/WX    TMP DP  RH WIND       PRES   REMARKS
NORTH BEND     CLOUDY    55  54  94 CALM      30.38F
BROOKINGS      FOG       57  57 100 CALM      30.38S VSB 1/4
ROSEBURG         N/A     57  53  86 W3        30.36F
SEXTON SUMMIT  FOG       47  47 100 VRB3      30.36F VSB 1/4
MEDFORD        CLOUDY    59  52  77 CALM      30.35F
$$

ORZ014>016-041-222000-
COLUMBIA GORGE


CITY           SKY/WX    TMP DP  RH WIND       PRES   REMARKS
TROUTDALE      CLOUDY    52  47  83 CALM      30.38F
THE DALLES     SUNNY     55  38  52 NW15      30.33F
$$

ORZ029>031-041-044-049-050-061>064-502-503-505>511-222000-
EASTERN OREGON


CITY           SKY/WX    TMP DP  RH WIND       PRES   REMARKS
REDMOND        SUNNY     46  37  71 E6        30.33R
BEND           NOT AVBL
PRINEVILLE     MOSUNNY   45  37  76 N3        30.34S
KLAMATH FALLS  SUNNY     51  45  79 W18       30.31S
LAKEVIEW       CLOUDY    48  41  76 W8        30.32S
HERMISTON      CLOUDY    51  39  63 W9        30.31R
PENDLETON      PTSUNNY   46  39  76 W14       30.29S
JOHN DAY       MOSUNNY   45  29  52 NW14      30.29S
MEACHAM        CLOUDY    37  33  85 VRB5      30.24R WCI  33
LA GRANDE      CLOUDY    43  28  56 NW17      30.25S
BAKER CITY     MOSUNNY   43  31  62 NW20      30.23R
BURNS          MOSUNNY   45  34  65 W18       30.26R
ROME             N/A     46  36  68 NW20G26   30.22S
ONTARIO        SUNNY     51  36  56 NW13      30.22R
$$


USA.gov is the U.S. government's official web portal to all federal, state and local government web resources and services.